Location: Chemnitz
(49.5500°N, 11.5830°E)
Time: 16:48:28
(UTC+02:00)

Tiangong 2 - Visible Passes

Search period start: 25 May 2018 00:00
Search period end: 04 June 2018 00:00
Orbit: 382 x 385 km, 42.8° (Epoch: 25 May)

Date Brightness Start Highest point End Pass type
(mag) Time Alt. Az. Time Alt. Az. Time Alt. Az.
25 May 2.4 22:11:57 10° SW 22:14:32 23° S 22:16:23 14° SE visible
25 May 3.6 23:48:20 10° WSW 23:48:35 11° WSW 23:48:35 11° WSW visible
26 May 2.4 22:48:32 10° WSW 22:51:05 23° S 22:51:30 22° S visible
27 May 2.4 21:48:50 10° SW 21:51:27 24° S 21:54:03 10° SE visible
27 May 3.3 23:25:33 10° WSW 23:26:31 14° SW 23:26:31 14° SW visible
28 May 2.7 22:25:35 10° WSW 22:27:59 20° SSW 22:29:18 16° SSE visible
29 May 3.4 23:03:06 10° SW 23:04:13 12° SSW 23:04:13 12° SSW visible
30 May 3.1 22:02:46 10° WSW 22:04:49 16° SSW 22:06:51 10° SSE visible
